Time,TemperatureF,DewpointF,PressureIn,WindDirection,WindDirectionDegrees,WindSpeedMPH,WindSpeedGustMPH,Humidity,HourlyPrecipIn,Conditions,Clouds,dailyrainin,SoftwareType,DateUTC
2013-02-10 00:00:00,36.0,30.7,29.66,West,261,1.0,4.0,81,0.00,CLR,,0.00,WeatherDisplay:10.37,2013-02-09 23:00:00,
2013-02-10 00:05:00,36.0,30.7,29.66,WSW,248,1.0,4.0,81,0.00,CLR,,0.00,WeatherDisplay:10.37,2013-02-09 23:05:00,
2013-02-10 00:10:00,36.0,30.7,29.66,WSW,248,1.0,4.0,81,0.00,CLR,,0.00,WeatherDisplay:10.37,2013-02-09 23:10:00,
2013-02-10 00:15:00,36.0,30.7,29.66,West,267,1.0,4.0,81,0.00,CLR,,0.00,WeatherDisplay:10.37,2013-02-09 23:15:00,
2013-02-10 00:20:00,36.0,30.7,29.66,NW,315,1.0,4.0,81,0.00,CLR,,0.00,WeatherDisplay:10.37,2013-02-09 23:20:00,
2013-02-10 00:25:00,36.0,30.7,29.66,NW,315,1.0,4.0,81,0.00,CLR,,0.00,WeatherDisplay:10.37,2013-02-09 23:25:00,
2013-02-10 00:30:00,36.1,30.9,29.67,NW,315,1.0,2.0,81,0.00,CLR,,0.00,WeatherDisplay:10.37,2013-02-09 23:30:00,
2013-02-10 00:35:00,36.1,30.9,29.67,NW,315,1.0,2.0,81,0.00,CLR,,0.00,WeatherDisplay:10.37,2013-02-09 23:35:00,
2013-02-10 00:40:00,36.1,30.9,29.67,NW,315,1.0,2.0,81,0.00,CLR,,0.00,WeatherDisplay:10.37,2013-02-09 23:40:00,
2013-02-10 00:45:00,36.1,30.9,29.66,NW,315,1.0,3.0,81,0.00,CLR,,0.00,WeatherDisplay:10.37,2013-02-09 23:45:00,
2013-02-10 00:50:00,36.1,30.9,29.66,NW,315,1.0,3.0,81,0.00,CLR,,0.00,WeatherDisplay:10.37,2013-02-09 23:50:00,
2013-02-10 00:55:00,36.1,30.9,29.66,NW,315,1.0,3.0,81,0.00,CLR,,0.00,WeatherDisplay:10.37,2013-02-09 23:55:00,
2013-02-10 01:00:00,36.3,30.7,29.67,SW,225,1.0,4.0,80,0.00,CLR,,0.00,WeatherDisplay:10.37,2013-02-10 00:00:00,
2013-02-10 01:05:00,36.3,30.7,29.67,SE,135,1.0,4.0,80,0.00,CLR,,0.00,WeatherDisplay:10.37,2013-02-10 00:05:00,
2013-02-10 01:10:00,36.3,30.7,29.67,SE,135,1.0,4.0,80,0.00,CLR,,0.00,WeatherDisplay:10.37,2013-02-10 00:10:00,
2013-02-10 01:15:00,36.3,30.7,29.67,NW,315,2.0,4.0,80,0.00,CLR,,0.00,WeatherDisplay:10.37,2013-02-10 00:15:00,
2013-02-10 01:20:00,36.3,30.7,29.67,NW,315,2.0,4.0,80,0.00,CLR,,0.00,WeatherDisplay:10.37,2013-02-10 00:20:00,
2013-02-10 01:25:00,36.3,30.7,29.67,NW,315,2.0,4.0,80,0.00,CLR,,0.00,WeatherDisplay:10.37,2013-02-10 00:25:00,
2013-02-10 01:30:00,36.7,30.8,29.68,NW,315,0.0,2.0,79,0.00,CLR,,0.00,WeatherDisplay:10.37,2013-02-10 00:30:00,
2013-02-10 01:35:00,36.7,30.8,29.68,NW,315,0.0,2.0,79,0.00,CLR,,0.00,WeatherDisplay:10.37,2013-02-10 00:35:00,
2013-02-10 01:40:00,36.7,30.8,29.68,NW,315,0.0,2.0,79,0.00,CLR,,0.00,WeatherDisplay:10.37,2013-02-10 00:40:00,
2013-02-10 01:45:00,36.9,30.6,29.68,NNW,341,1.0,4.0,78,0.00,CLR,,0.00,WeatherDisplay:10.37,2013-02-10 00:45:00,
2013-02-10 01:50:00,36.9,30.6,29.68,North,0,1.0,4.0,78,0.00,CLR,,0.00,WeatherDisplay:10.37,2013-02-10 00:50:00,
2013-02-10 01:55:00,36.9,30.6,29.68,North,0,1.0,4.0,78,0.00,CLR,,0.00,WeatherDisplay:10.37,2013-02-10 00:55:00,
2013-02-10 02:00:00,36.9,30.6,29.68,North,0,0.0,2.0,78,0.00,CLR,,0.00,WeatherDisplay:10.37,2013-02-10 01:00:00,
2013-02-10 02:05:00,36.9,30.6,29.68,North,0,0.0,2.0,78,0.00,CLR,,0.00,WeatherDisplay:10.37,2013-02-10 01:05:00,
2013-02-10 02:10:00,36.9,30.6,29.68,North,0,0.0,2.0,78,0.00,CLR,,0.00,WeatherDisplay:10.37,2013-02-10 01:10:00,
2013-02-10 02:15:00,36.9,30.3,29.68,NNW,338,0.0,1.0,77,0.00,CLR,,0.00,WeatherDisplay:10.37,2013-02-10 01:15:00,
2013-02-10 02:20:00,36.9,30.3,29.68,NW,315,0.0,1.0,77,0.00,CLR,,0.00,WeatherDisplay:10.37,2013-02-10 01:20:00,
2013-02-10 02:25:00,36.9,30.3,29.68,NW,315,0.0,1.0,77,0.00,CLR,,0.00,WeatherDisplay:10.37,2013-02-10 01:25:00,
2013-02-10 02:30:00,37.4,30.8,29.69,NW,307,1.0,2.0,77,0.00,CLR,,0.00,WeatherDisplay:10.37,2013-02-10 01:30:00,
2013-02-10 02:35:00,37.4,30.8,29.69,WNW,292,1.0,2.0,77,0.00,CLR,,0.00,WeatherDisplay:10.37,2013-02-10 01:35:00,
2013-02-10 02:40:00,37.4,30.8,29.69,WNW,292,1.0,2.0,77,0.00,CLR,,0.00,WeatherDisplay:10.37,2013-02-10 01:40:00,
2013-02-10 02:45:00,37.8,31.2,29.68,West,278,0.0,1.0,77,0.00,CLR,,0.00,WeatherDisplay:10.37,2013-02-10 01:45:00,
2013-02-10 02:50:00,37.8,31.2,29.68,West,270,0.0,1.0,77,0.00,CLR,,0.00,WeatherDisplay:10.37,2013-02-10 01:50:00,
2013-02-10 02:55:00,37.8,31.2,29.68,West,270,0.0,1.0,77,0.00,CLR,,0.00,WeatherDisplay:10.37,2013-02-10 01:55:00,
2013-02-10 03:00:00,38.3,31.7,29.68,East,90,0.0,2.0,77,0.00,CLR,,0.00,WeatherDisplay:10.37,2013-02-10 02:00:00,
2013-02-10 03:05:00,38.3,31.7,29.68,East,90,0.0,2.0,77,0.00,CLR,,0.00,WeatherDisplay:10.37,2013-02-10 02:05:00,
2013-02-10 03:10:00,38.3,31.7,29.68,East,90,0.0,2.0,77,0.00,CLR,,0.00,WeatherDisplay:10.37,2013-02-10 02:10:00,
2013-02-10 03:15:00,38.7,31.7,29.68,East,90,1.0,3.0,76,0.00,CLR,,0.00,WeatherDisplay:10.37,2013-02-10 02:15:00,
2013-02-10 03:20:00,38.7,31.7,29.68,East,90,1.0,3.0,76,0.00,CLR,,0.00,WeatherDisplay:10.37,2013-02-10 02:20:00,
2013-02-10 03:25:00,38.7,31.7,29.68,East,90,1.0,3.0,76,0.00,CLR,,0.00,WeatherDisplay:10.37,2013-02-10 02:25:00,
2013-02-10 03:30:00,39.0,32.1,29.69,NE,43,0.0,2.0,76,0.00,CLR,,0.00,WeatherDisplay:10.37,2013-02-10 02:30:00,
2013-02-10 03:35:00,39.0,32.1,29.69,NW,315,0.0,2.0,76,0.00,CLR,,0.00,WeatherDisplay:10.37,2013-02-10 02:35:00,
2013-02-10 03:40:00,39.0,32.1,29.69,NW,315,0.0,2.0,76,0.00,CLR,,0.00,WeatherDisplay:10.37,2013-02-10 02:40:00,
2013-02-10 03:45:00,39.4,32.4,29.69,WNW,285,2.0,4.0,76,0.00,CLR,,0.00,WeatherDisplay:10.37,2013-02-10 02:45:00,
2013-02-10 03:50:00,39.4,32.4,29.69,West,270,2.0,4.0,76,0.00,CLR,,0.00,WeatherDisplay:10.37,2013-02-10 02:50:00,
2013-02-10 03:55:00,39.4,32.4,29.69,West,270,2.0,4.0,76,0.00,CLR,,0.00,WeatherDisplay:10.37,2013-02-10 02:55:00,
2013-02-10 04:00:00,40.5,33.2,29.70,WNW,290,0.0,2.0,75,0.00,CLR,,0.00,WeatherDisplay:10.37,2013-02-10 03:00:00,
2013-02-10 04:05:00,40.5,33.2,29.70,ENE,68,0.0,2.0,75,0.00,CLR,,0.00,WeatherDisplay:10.37,2013-02-10 03:05:00,
2013-02-10 04:10:00,40.5,33.2,29.70,ENE,68,0.0,2.0,75,0.00,CLR,,0.00,WeatherDisplay:10.37,2013-02-10 03:10:00,
2013-02-10 04:15:00,41.9,34.2,29.70,NE,44,1.0,3.0,74,0.00,CLR,,0.00,WeatherDisplay:10.37,2013-02-10 03:15:00,
2013-02-10 04:20:00,41.9,34.2,29.70,North,0,1.0,3.0,74,0.00,CLR,,0.00,WeatherDisplay:10.37,2013-02-10 03:20:00,
2013-02-10 04:25:00,41.9,34.2,29.70,North,0,1.0,3.0,74,0.00,CLR,,0.00,WeatherDisplay:10.37,2013-02-10 03:25:00,
2013-02-10 04:30:00,43.0,34.6,29.70,NE,35,2.0,4.0,72,0.00,CLR,,0.00,WeatherDisplay:10.37,2013-02-10 03:30:00,
2013-02-10 04:35:00,43.0,34.6,29.70,NE,45,2.0,4.0,72,0.00,CLR,,0.00,WeatherDisplay:10.37,2013-02-10 03:35:00,
2013-02-10 04:40:00,43.0,34.6,29.70,NE,45,2.0,4.0,72,0.00,CLR,,0.00,WeatherDisplay:10.37,2013-02-10 03:40:00,
2013-02-10 04:45:00,44.1,34.9,29.71,NE,45,1.0,3.0,70,0.00,CLR,,0.00,WeatherDisplay:10.37,2013-02-10 03:45:00,
2013-02-10 04:50:00,44.1,34.9,29.71,NE,45,1.0,3.0,70,0.00,CLR,,0.00,WeatherDisplay:10.37,2013-02-10 03:50:00,
2013-02-10 04:55:00,44.1,34.9,29.71,NE,45,1.0,3.0,70,0.00,CLR,,0.00,WeatherDisplay:10.37,2013-02-10 03:55:00,
2013-02-10 05:00:00,44.4,34.5,29.70,WNW,299,3.0,5.0,68,0.00,CLR,,0.00,WeatherDisplay:10.37,2013-02-10 04:00:00,
2013-02-10 05:05:00,44.4,34.5,29.70,West,270,3.0,5.0,68,0.00,CLR,,0.00,WeatherDisplay:10.37,2013-02-10 04:05:00,
2013-02-10 05:10:00,44.4,34.5,29.70,West,270,3.0,5.0,68,0.00,CLR,,0.00,WeatherDisplay:10.37,2013-02-10 04:10:00,
2013-02-10 05:15:00,44.8,34.5,29.70,West,280,1.0,3.0,67,0.00,CLR,,0.00,WeatherDisplay:10.37,2013-02-10 04:15:00,
2013-02-10 05:20:00,44.8,34.5,29.70,NE,45,1.0,3.0,67,0.00,CLR,,0.00,WeatherDisplay:10.37,2013-02-10 04:20:00,
2013-02-10 05:25:00,44.8,34.5,29.70,NE,45,1.0,3.0,67,0.00,CLR,,0.00,WeatherDisplay:10.37,2013-02-10 04:25:00,
2013-02-10 05:30:00,45.7,34.6,29.70,NNE,29,1.0,4.0,65,0.00,CLR,,0.00,WeatherDisplay:10.37,2013-02-10 04:30:00,
2013-02-10 05:35:00,45.7,34.6,29.70,NNE,22,1.0,4.0,65,0.00,CLR,,0.00,WeatherDisplay:10.37,2013-02-10 04:35:00,
2013-02-10 05:40:00,45.7,34.6,29.70,NNE,22,1.0,4.0,65,0.00,CLR,,0.00,WeatherDisplay:10.37,2013-02-10 04:40:00,
2013-02-10 05:45:00,46.2,34.3,29.70,NNE,22,2.0,5.0,63,0.00,CLR,,0.00,WeatherDisplay:10.37,2013-02-10 04:45:00,
2013-02-10 05:50:00,46.2,34.3,29.70,NNE,22,2.0,5.0,63,0.00,CLR,,0.00,WeatherDisplay:10.37,2013-02-10 04:50:00,
2013-02-10 05:55:00,46.2,34.3,29.70,NNE,22,2.0,5.0,63,0.00,CLR,,0.00,WeatherDisplay:10.37,2013-02-10 04:55:00,
2013-02-10 06:00:00,46.2,34.3,29.70,North,356,3.0,5.0,63,0.00,CLR,,0.00,WeatherDisplay:10.37,2013-02-10 05:00:00,
2013-02-10 07:20:00,47.3,31.9,29.69,NNW,333,3.0,6.0,55,0.00,CLR,,0.00,WeatherDisplay:10.37,2013-02-10 06:20:00,
2013-02-10 07:25:00,47.3,31.9,29.69,North,354,3.0,6.0,55,0.00,CLR,,0.00,WeatherDisplay:10.37,2013-02-10 06:25:00,
2013-02-10 07:30:00,47.3,31.9,29.69,North,0,3.0,6.0,55,0.00,CLR,,0.00,WeatherDisplay:10.37,2013-02-10 06:30:00,
2013-02-10 07:35:00,47.3,31.9,29.69,North,2,1.0,6.0,55,0.00,CLR,,0.00,WeatherDisplay:10.37,2013-02-10 06:35:00,
2013-02-10 07:40:00,47.3,31.9,29.69,NNE,13,1.0,4.0,55,0.00,CLR,,0.00,WeatherDisplay:10.37,2013-02-10 06:40:00,
2013-02-10 07:45:00,47.3,31.9,29.69,NE,45,1.0,4.0,55,0.00,CLR,,0.00,WeatherDisplay:10.37,2013-02-10 06:45:00,
2013-02-10 07:50:00,47.7,32.3,29.69,NE,45,0.0,4.0,55,0.00,CLR,,0.00,WeatherDisplay:10.37,2013-02-10 06:50:00,
2013-02-10 07:55:00,47.7,32.3,29.69,SW,225,0.0,2.0,55,0.00,CLR,,0.00,WeatherDisplay:10.37,2013-02-10 06:55:00,
2013-02-10 08:00:00,47.7,32.3,29.69,SW,225,0.0,2.0,55,0.00,CLR,,0.00,WeatherDisplay:10.37,2013-02-10 07:00:00,
2013-02-10 08:05:00,47.7,31.8,29.69,SW,232,1.0,3.0,54,0.00,CLR,,0.00,WeatherDisplay:10.37,2013-02-10 07:05:00,
2013-02-10 08:10:00,47.7,31.8,29.69,NW,313,1.0,3.0,54,0.00,CLR,,0.00,WeatherDisplay:10.37,2013-02-10 07:10:00,
2013-02-10 08:15:00,47.7,31.8,29.69,North,0,1.0,3.0,54,0.00,CLR,,0.00,WeatherDisplay:10.37,2013-02-10 07:15:00,
2013-02-10 08:20:00,47.8,31.5,29.69,North,9,1.0,4.0,53,0.00,CLR,,0.00,WeatherDisplay:10.37,2013-02-10 07:20:00,
2013-02-10 08:25:00,47.8,31.5,29.69,NNE,32,1.0,4.0,53,0.00,CLR,,0.00,WeatherDisplay:10.37,2013-02-10 07:25:00,
2013-02-10 08:30:00,47.8,31.5,29.69,NE,45,1.0,4.0,53,0.00,CLR,,0.00,WeatherDisplay:10.37,2013-02-10 07:30:00,
2013-02-10 08:35:00,47.8,31.5,29.69,North,356,2.0,4.0,53,0.00,CLR,,0.00,WeatherDisplay:10.37,2013-02-10 07:35:00,
2013-02-10 08:40:00,47.8,31.5,29.69,WNW,299,2.0,4.0,53,0.00,CLR,,0.00,WeatherDisplay:10.37,2013-02-10 07:40:00,
2013-02-10 08:45:00,47.8,31.5,29.69,WNW,292,2.0,4.0,53,0.00,CLR,,0.00,WeatherDisplay:10.37,2013-02-10 07:45:00,
2013-02-10 08:50:00,48.4,32.0,29.68,WNW,295,1.0,4.0,53,0.00,CLR,,0.00,WeatherDisplay:10.37,2013-02-10 07:50:00,
2013-02-10 08:55:00,48.4,32.0,29.68,NNW,336,1.0,3.0,53,0.00,CLR,,0.00,WeatherDisplay:10.37,2013-02-10 07:55:00,
2013-02-10 09:00:00,48.4,32.0,29.68,ENE,68,1.0,3.0,53,0.00,CLR,,0.00,WeatherDisplay:10.37,2013-02-10 08:00:00,
2013-02-10 09:05:00,48.2,31.9,29.69,NE,56,1.0,3.0,53,0.00,CLR,,0.00,WeatherDisplay:10.37,2013-02-10 08:05:00,
2013-02-10 09:10:00,48.2,31.9,29.69,NNE,19,1.0,3.0,53,0.00,CLR,,0.00,WeatherDisplay:10.37,2013-02-10 08:10:00,
2013-02-10 09:15:00,48.2,31.9,29.69,North,0,1.0,3.0,53,0.00,CLR,,0.00,WeatherDisplay:10.37,2013-02-10 08:15:00,
2013-02-10 09:20:00,47.7,31.4,29.69,North,351,1.0,3.0,53,0.00,CLR,,0.00,WeatherDisplay:10.37,2013-02-10 08:20:00,
2013-02-10 09:25:00,47.7,31.4,29.69,NNW,328,1.0,2.0,53,0.00,CLR,,0.00,WeatherDisplay:10.37,2013-02-10 08:25:00,
2013-02-10 09:30:00,47.7,31.4,29.69,NW,315,1.0,2.0,53,0.00,CLR,,0.00,WeatherDisplay:10.37,2013-02-10 08:30:00,
2013-02-10 09:35:00,46.9,30.7,29.68,NNW,335,2.0,4.0,53,0.00,CLR,,0.00,WeatherDisplay:10.37,2013-02-10 08:35:00,
2013-02-10 09:40:00,46.9,30.7,29.68,North,355,2.0,4.0,53,0.00,CLR,,0.00,WeatherDisplay:10.37,2013-02-10 08:40:00,
2013-02-10 09:45:00,46.9,30.7,29.68,North,0,2.0,4.0,53,0.00,CLR,,0.00,WeatherDisplay:10.37,2013-02-10 08:45:00,
2013-02-10 09:50:00,47.1,31.3,29.68,North,10,1.0,4.0,54,0.00,CLR,,0.00,WeatherDisplay:10.37,2013-02-10 08:50:00,
2013-02-10 09:55:00,47.1,31.3,29.68,ENE,76,1.0,3.0,54,0.00,CLR,,0.00,WeatherDisplay:10.37,2013-02-10 08:55:00,
2013-02-10 10:00:00,47.1,31.3,29.68,ESE,112,1.0,3.0,54,0.00,CLR,,0.00,WeatherDisplay:10.37,2013-02-10 09:00:00,
2013-02-10 10:05:00,46.6,30.8,29.69,ESE,108,1.0,4.0,54,0.00,CLR,,0.00,WeatherDisplay:10.37,2013-02-10 09:05:00,
2013-02-10 10:10:00,46.6,30.8,29.69,East,97,1.0,4.0,54,0.00,CLR,,0.00,WeatherDisplay:10.37,2013-02-10 09:10:00,
2013-02-10 10:15:00,46.6,30.8,29.69,East,90,1.0,4.0,54,0.00,CLR,,0.00,WeatherDisplay:10.37,2013-02-10 09:15:00,
2013-02-10 10:20:00,46.8,31.0,29.69,ENE,74,2.0,4.0,54,0.00,CLR,,0.00,WeatherDisplay:10.37,2013-02-10 09:20:00,
2013-02-10 10:25:00,46.8,31.0,29.69,NE,36,2.0,4.0,54,0.00,CLR,,0.00,WeatherDisplay:10.37,2013-02-10 09:25:00,
2013-02-10 10:30:00,46.8,31.0,29.69,NNE,22,2.0,4.0,54,0.00,CLR,,0.00,WeatherDisplay:10.37,2013-02-10 09:30:00,
2013-02-10 10:35:00,46.9,31.1,29.69,NNE,22,2.0,4.0,54,0.00,CLR,,0.00,WeatherDisplay:10.37,2013-02-10 09:35:00,
2013-02-10 10:40:00,46.9,31.1,29.69,NNE,22,2.0,4.0,54,0.00,CLR,,0.00,WeatherDisplay:10.37,2013-02-10 09:40:00,
2013-02-10 10:45:00,46.9,31.1,29.69,NNE,22,2.0,4.0,54,0.00,CLR,,0.00,WeatherDisplay:10.37,2013-02-10 09:45:00,
2013-02-10 10:50:00,46.6,30.8,29.69,NNE,20,1.0,4.0,54,0.00,CLR,,0.00,WeatherDisplay:10.37,2013-02-10 09:50:00,
2013-02-10 10:55:00,46.6,30.8,29.69,NNE,13,1.0,3.0,54,0.00,CLR,,0.00,WeatherDisplay:10.37,2013-02-10 09:55:00,
2013-02-10 11:00:00,46.6,30.8,29.69,North,0,1.0,3.0,54,0.00,CLR,,0.00,WeatherDisplay:10.37,2013-02-10 10:00:00,
2013-02-10 11:05:00,46.2,30.9,29.69,NNW,344,1.0,3.0,55,0.00,CLR,,0.00,WeatherDisplay:10.37,2013-02-10 10:05:00,
2013-02-10 11:10:00,46.2,30.9,29.69,NW,322,1.0,3.0,55,0.00,CLR,,0.00,WeatherDisplay:10.37,2013-02-10 10:10:00,
2013-02-10 11:15:00,46.2,30.9,29.69,NW,315,1.0,3.0,55,0.00,CLR,,0.00,WeatherDisplay:10.37,2013-02-10 10:15:00,
2013-02-10 11:20:00,45.7,30.4,29.70,NW,319,1.0,3.0,55,0.00,CLR,,0.00,WeatherDisplay:10.37,2013-02-10 10:20:00,
2013-02-10 11:25:00,45.7,30.4,29.70,NNW,338,1.0,2.0,55,0.00,CLR,,0.00,WeatherDisplay:10.37,2013-02-10 10:25:00,
2013-02-10 11:30:00,45.7,30.4,29.70,North,0,1.0,2.0,55,0.00,CLR,,0.00,WeatherDisplay:10.37,2013-02-10 10:30:00,
2013-02-10 11:35:00,45.0,30.2,29.70,North,351,1.0,2.0,56,0.00,CLR,,0.00,WeatherDisplay:10.37,2013-02-10 10:35:00,
2013-02-10 11:40:00,45.0,30.2,29.70,NNW,328,1.0,2.0,56,0.00,CLR,,0.00,WeatherDisplay:10.37,2013-02-10 10:40:00,
2013-02-10 11:45:00,45.0,30.2,29.70,NW,315,1.0,2.0,56,0.00,CLR,,0.00,WeatherDisplay:10.37,2013-02-10 10:45:00,
2013-02-10 11:50:00,44.4,29.7,29.70,NW,315,0.0,2.0,56,0.00,CLR,,0.00,WeatherDisplay:10.37,2013-02-10 10:50:00,
2013-02-10 11:55:00,44.4,29.7,29.70,NW,315,0.0,1.0,56,0.00,CLR,,0.00,WeatherDisplay:10.37,2013-02-10 10:55:00,
2013-02-10 12:00:00,44.4,29.7,29.70,NW,315,0.0,1.0,56,0.00,CLR,,0.00,WeatherDisplay:10.37,2013-02-10 11:00:00,
2013-02-10 12:03:00,46.2,34.3,29.70,NNW,338,6.0,6.0,63,0.00,CLR,,0.00,WeatherDisplay:10.37,2013-02-10 11:03:00,
2013-02-10 12:04:00,46.2,34.3,29.70,NNW,338,5.8,5.8,63,0.00,CLR,,0.00,WeatherDisplay:10.37,2013-02-10 11:04:00,
2013-02-10 12:05:00,43.9,29.6,29.71,NW,323,1.0,2.0,57,0.00,CLR,,0.00,WeatherDisplay:10.37,2013-02-10 11:05:00,
2013-02-10 12:09:00,46.4,34.1,29.70,East,90,5.8,5.8,62,0.00,CLR,,0.00,WeatherDisplay:10.37,2013-02-10 11:09:00,
2013-02-10 12:10:00,43.9,29.6,29.71,North,9,1.0,2.0,57,0.00,CLR,,0.00,WeatherDisplay:10.37,2013-02-10 11:10:00,
2013-02-10 12:14:00,46.6,33.8,29.69,NE,45,3.5,3.5,61,0.00,CLR,,0.00,WeatherDisplay:10.37,2013-02-10 11:14:00,
2013-02-10 12:15:00,43.9,29.6,29.71,NE,45,1.0,2.0,57,0.00,CLR,,0.00,WeatherDisplay:10.37,2013-02-10 11:15:00,
2013-02-10 12:19:00,46.8,33.6,29.70,North,0,6.9,6.9,60,0.00,CLR,,0.00,WeatherDisplay:10.37,2013-02-10 11:19:00,
2013-02-10 12:20:00,43.7,29.9,29.71,NE,45,0.0,2.0,58,0.00,CLR,,0.00,WeatherDisplay:10.37,2013-02-10 11:20:00,
2013-02-10 12:24:00,46.6,33.4,29.70,NW,315,5.8,5.8,60,0.00,CLR,,0.00,WeatherDisplay:10.37,2013-02-10 11:24:00,
2013-02-10 12:25:00,43.7,29.9,29.71,NE,45,0.0,2.0,58,0.00,CLR,,0.00,WeatherDisplay:10.37,2013-02-10 11:25:00,
2013-02-10 12:29:00,46.8,33.2,29.69,NW,315,6.9,6.9,59,0.00,CLR,,0.00,WeatherDisplay:10.37,2013-02-10 11:29:00,
2013-02-10 12:30:00,43.7,29.9,29.71,NE,45,0.0,2.0,58,0.00,CLR,,0.00,WeatherDisplay:10.37,2013-02-10 11:30:00,
2013-02-10 12:34:00,46.4,32.4,29.69,North,0,9.2,9.2,58,0.00,CLR,,0.00,WeatherDisplay:10.37,2013-02-10 11:34:00,
2013-02-10 12:35:00,43.5,30.1,29.71,NE,45,0.0,2.0,59,0.00,CLR,,0.00,WeatherDisplay:10.37,2013-02-10 11:35:00,
2013-02-10 12:39:00,46.4,32.4,29.69,NNW,338,5.8,5.8,58,0.00,CLR,,0.00,WeatherDisplay:10.37,2013-02-10 11:39:00,
2013-02-10 12:40:00,43.5,30.1,29.71,NE,45,0.0,1.0,59,0.00,CLR,,0.00,WeatherDisplay:10.37,2013-02-10 11:40:00,
2013-02-10 12:44:00,46.6,32.6,29.69,WSW,248,4.6,4.6,58,0.00,CLR,,0.00,WeatherDisplay:10.37,2013-02-10 11:44:00,
2013-02-10 12:45:00,43.5,30.1,29.71,NE,45,0.0,1.0,59,0.00,CLR,,0.00,WeatherDisplay:10.37,2013-02-10 11:45:00,
2013-02-10 12:49:00,46.6,32.1,29.69,NE,45,5.8,5.8,57,0.00,CLR,,0.00,WeatherDisplay:10.37,2013-02-10 11:49:00,
2013-02-10 12:50:00,43.2,29.8,29.72,NE,45,0.0,1.0,59,0.00,CLR,,0.00,WeatherDisplay:10.37,2013-02-10 11:50:00,
2013-02-10 12:54:00,46.8,32.3,29.70,North,0,5.8,5.8,57,0.00,CLR,,0.00,WeatherDisplay:10.37,2013-02-10 11:54:00,
2013-02-10 12:55:00,43.2,29.8,29.72,NE,45,0.0,1.0,59,0.00,CLR,,0.00,WeatherDisplay:10.37,2013-02-10 11:55:00,
2013-02-10 12:59:00,46.9,32.5,29.70,NE,45,4.6,0.0,57,0.00,CLR,,0.00,WeatherDisplay:10.37,2013-02-10 11:59:00,
2013-02-10 13:00:00,43.2,29.8,29.72,NE,45,0.0,1.0,59,0.00,CLR,,0.00,WeatherDisplay:10.37,2013-02-10 12:00:00,
2013-02-10 13:04:00,47.1,32.7,29.70,East,90,5.8,5.8,57,0.00,CLR,,0.00,WeatherDisplay:10.37,2013-02-10 12:04:00,
2013-02-10 13:05:00,42.8,29.9,29.72,NE,45,0.0,1.0,60,0.00,CLR,,0.00,WeatherDisplay:10.37,2013-02-10 12:05:00,
2013-02-10 13:09:00,47.5,33.0,29.70,NW,315,3.5,3.5,57,0.00,CLR,,0.00,WeatherDisplay:10.37,2013-02-10 12:09:00,
2013-02-10 13:10:00,42.8,29.9,29.72,NE,45,0.0,1.0,60,0.00,CLR,,0.00,WeatherDisplay:10.37,2013-02-10 12:10:00,
2013-02-10 13:14:00,47.5,33.0,29.69,WNW,292,8.1,8.1,57,0.00,CLR,,0.00,WeatherDisplay:10.37,2013-02-10 12:14:00,
2013-02-10 13:15:00,42.8,29.9,29.72,NE,45,0.0,1.0,60,0.00,CLR,,0.00,WeatherDisplay:10.37,2013-02-10 12:15:00,
2013-02-10 13:19:00,47.3,32.4,29.69,NW,315,5.8,5.8,56,0.00,CLR,,0.00,WeatherDisplay:10.37,2013-02-10 12:19:00,
2013-02-10 13:20:00,42.4,29.5,29.73,ENE,59,2.0,4.0,60,0.00,CLR,,0.00,WeatherDisplay:10.37,2013-02-10 12:20:00,
2013-02-10 13:25:00,42.4,29.5,29.73,East,82,2.0,4.0,60,0.00,CLR,,0.00,WeatherDisplay:10.37,2013-02-10 12:25:00,
2013-02-10 13:30:00,42.4,29.5,29.73,East,90,2.0,4.0,60,0.00,CLR,,0.00,WeatherDisplay:10.37,2013-02-10 12:30:00,
2013-02-10 13:35:00,41.7,29.3,29.73,East,86,1.0,5.0,61,0.00,CLR,,0.00,WeatherDisplay:10.37,2013-02-10 12:35:00,
2013-02-10 13:40:00,41.7,29.3,29.73,NW,320,1.0,5.0,61,0.00,CLR,,0.00,WeatherDisplay:10.37,2013-02-10 12:40:00,
2013-02-10 13:45:00,41.7,29.3,29.73,WNW,292,1.0,5.0,61,0.00,CLR,,0.00,WeatherDisplay:10.37,2013-02-10 12:45:00,
2013-02-10 13:50:00,40.6,28.6,29.73,WNW,295,1.0,5.0,62,0.00,CLR,,0.00,WeatherDisplay:10.37,2013-02-10 12:50:00,
2013-02-10 13:55:00,40.6,28.6,29.73,North,11,1.0,2.0,62,0.00,CLR,,0.00,WeatherDisplay:10.37,2013-02-10 12:55:00,
2013-02-10 14:00:00,40.6,28.6,29.73,East,90,1.0,2.0,62,0.00,CLR,,0.00,WeatherDisplay:10.37,2013-02-10 13:00:00,
2013-02-10 14:05:00,39.9,28.7,29.73,ENE,67,0.0,2.0,64,0.00,CLR,,0.00,WeatherDisplay:10.37,2013-02-10 13:05:00,
2013-02-10 14:10:00,39.9,28.7,29.73,NNW,327,0.0,2.0,64,0.00,CLR,,0.00,WeatherDisplay:10.37,2013-02-10 13:10:00,
2013-02-10 14:15:00,39.9,28.7,29.73,NW,315,0.0,2.0,64,0.00,CLR,,0.00,WeatherDisplay:10.37,2013-02-10 13:15:00,
2013-02-10 14:20:00,39.6,28.8,29.73,NNW,334,1.0,3.0,65,0.00,CLR,,0.00,WeatherDisplay:10.37,2013-02-10 13:20:00,
2013-02-10 14:25:00,39.6,28.8,29.73,NNE,28,1.0,3.0,65,0.00,CLR,,0.00,WeatherDisplay:10.37,2013-02-10 13:25:00,
2013-02-10 14:30:00,39.6,28.8,29.73,NE,45,1.0,3.0,65,0.00,CLR,,0.00,WeatherDisplay:10.37,2013-02-10 13:30:00,
2013-02-10 14:35:00,39.2,28.8,29.74,NNE,31,1.0,4.0,66,0.00,CLR,,0.00,WeatherDisplay:10.37,2013-02-10 13:35:00,
2013-02-10 14:40:00,39.2,28.8,29.74,NNW,338,1.0,4.0,66,0.00,CLR,,0.00,WeatherDisplay:10.37,2013-02-10 13:40:00,
2013-02-10 14:45:00,39.2,28.8,29.74,NW,315,1.0,4.0,66,0.00,CLR,,0.00,WeatherDisplay:10.37,2013-02-10 13:45:00,
2013-02-10 14:50:00,38.8,28.4,29.73,NW,315,1.0,4.0,66,0.00,CLR,,0.00,WeatherDisplay:10.37,2013-02-10 13:50:00,
2013-02-10 14:55:00,38.8,28.4,29.73,NW,315,1.0,2.0,66,0.00,CLR,,0.00,WeatherDisplay:10.37,2013-02-10 13:55:00,
2013-02-10 15:00:00,38.8,28.4,29.73,NW,315,1.0,2.0,66,0.00,CLR,,0.00,WeatherDisplay:10.37,2013-02-10 14:00:00,
2013-02-10 15:05:00,38.7,28.6,29.74,NW,315,1.0,3.0,67,0.00,CLR,,0.00,WeatherDisplay:10.37,2013-02-10 14:05:00,
2013-02-10 15:10:00,38.7,28.6,29.74,NW,315,1.0,3.0,67,0.00,CLR,,0.00,WeatherDisplay:10.37,2013-02-10 14:10:00,
2013-02-10 15:15:00,38.7,28.6,29.74,NW,315,1.0,3.0,67,0.00,CLR,,0.00,WeatherDisplay:10.37,2013-02-10 14:15:00,
2013-02-10 15:20:00,38.5,28.8,29.74,NW,315,1.0,4.0,68,0.00,CLR,,0.00,WeatherDisplay:10.37,2013-02-10 14:20:00,
2013-02-10 15:25:00,38.5,28.8,29.74,NW,315,1.0,4.0,68,0.00,CLR,,0.00,WeatherDisplay:10.37,2013-02-10 14:25:00,
2013-02-10 15:30:00,38.5,28.8,29.74,NW,315,1.0,4.0,68,0.00,CLR,,0.00,WeatherDisplay:10.37,2013-02-10 14:30:00,
2013-02-10 15:35:00,38.1,28.8,29.74,NW,308,0.0,4.0,69,0.00,CLR,,0.00,WeatherDisplay:10.37,2013-02-10 14:35:00,
2013-02-10 15:40:00,38.1,28.8,29.74,WNW,286,0.0,2.0,69,0.00,CLR,,0.00,WeatherDisplay:10.37,2013-02-10 14:40:00,
2013-02-10 15:45:00,38.1,28.8,29.74,West,270,0.0,2.0,69,0.00,CLR,,0.00,WeatherDisplay:10.37,2013-02-10 14:45:00,
2013-02-10 15:50:00,37.8,28.5,29.75,West,281,1.0,4.0,69,0.00,CLR,,0.00,WeatherDisplay:10.37,2013-02-10 14:50:00,
2013-02-10 15:55:00,37.8,28.5,29.75,NW,305,1.0,4.0,69,0.00,CLR,,0.00,WeatherDisplay:10.37,2013-02-10 14:55:00,
2013-02-10 16:00:00,37.8,28.5,29.75,NW,315,1.0,4.0,69,0.00,CLR,,0.00,WeatherDisplay:10.37,2013-02-10 15:00:00,
2013-02-10 16:05:00,37.4,28.5,29.75,NW,315,0.0,4.0,70,0.00,CLR,,0.00,WeatherDisplay:10.37,2013-02-10 15:05:00,
2013-02-10 16:10:00,37.4,28.5,29.75,NW,315,0.0,1.0,70,0.00,CLR,,0.00,WeatherDisplay:10.37,2013-02-10 15:10:00,
2013-02-10 16:15:00,37.4,28.5,29.75,NW,315,0.0,1.0,70,0.00,CLR,,0.00,WeatherDisplay:10.37,2013-02-10 15:15:00,
2013-02-10 16:20:00,37.4,28.9,29.75,WNW,301,0.0,2.0,71,0.00,CLR,,0.00,WeatherDisplay:10.37,2013-02-10 15:20:00,
2013-02-10 16:25:00,37.4,28.9,29.75,WSW,248,0.0,2.0,71,0.00,CLR,,0.00,WeatherDisplay:10.37,2013-02-10 15:25:00,
2013-02-10 16:30:00,37.4,28.9,29.75,SW,225,0.0,2.0,71,0.00,CLR,,0.00,WeatherDisplay:10.37,2013-02-10 15:30:00,
2013-02-10 16:35:00,37.0,28.5,29.75,SW,230,1.0,2.0,71,0.00,CLR,,0.00,WeatherDisplay:10.37,2013-02-10 15:35:00,
2013-02-10 16:40:00,37.0,28.5,29.75,WSW,251,1.0,2.0,71,0.00,CLR,,0.00,WeatherDisplay:10.37,2013-02-10 15:40:00,
2013-02-10 16:45:00,37.0,28.5,29.75,West,270,1.0,2.0,71,0.00,CLR,,0.00,WeatherDisplay:10.37,2013-02-10 15:45:00,
2013-02-10 16:50:00,36.9,28.7,29.77,West,270,1.0,4.0,72,0.00,CLR,,0.00,WeatherDisplay:10.37,2013-02-10 15:50:00,
2013-02-10 16:55:00,36.9,28.7,29.77,West,270,1.0,4.0,72,0.00,CLR,,0.00,WeatherDisplay:10.37,2013-02-10 15:55:00,
2013-02-10 17:00:00,36.9,28.7,29.77,West,270,1.0,4.0,72,0.00,CLR,,0.00,WeatherDisplay:10.37,2013-02-10 16:00:00,
2013-02-10 17:05:00,36.7,28.5,29.77,West,270,1.0,4.0,72,0.00,CLR,,0.00,WeatherDisplay:10.37,2013-02-10 16:05:00,
2013-02-10 17:10:00,36.7,28.5,29.77,West,270,1.0,2.0,72,0.00,CLR,,0.00,WeatherDisplay:10.37,2013-02-10 16:10:00,
2013-02-10 17:15:00,36.7,28.5,29.77,West,270,1.0,2.0,72,0.00,CLR,,0.00,WeatherDisplay:10.37,2013-02-10 16:15:00,
2013-02-10 17:20:00,36.5,28.7,29.77,West,270,0.0,2.0,73,0.00,CLR,,0.00,WeatherDisplay:10.37,2013-02-10 16:20:00,
2013-02-10 17:25:00,36.5,28.7,29.77,West,270,0.0,2.0,73,0.00,CLR,,0.00,WeatherDisplay:10.37,2013-02-10 16:25:00,
2013-02-10 17:30:00,36.5,28.7,29.77,West,270,0.0,2.0,73,0.00,CLR,,0.00,WeatherDisplay:10.37,2013-02-10 16:30:00,
2013-02-10 17:35:00,36.5,28.7,29.78,West,278,1.0,2.0,73,0.00,CLR,,0.00,WeatherDisplay:10.37,2013-02-10 16:35:00,
2013-02-10 17:40:00,36.5,28.7,29.78,NW,324,1.0,2.0,73,0.00,CLR,,0.00,WeatherDisplay:10.37,2013-02-10 16:40:00,
2013-02-10 17:45:00,36.5,28.7,29.78,North,0,1.0,2.0,73,0.00,CLR,,0.00,WeatherDisplay:10.37,2013-02-10 16:45:00,
2013-02-10 17:50:00,36.5,29.0,29.78,North,351,1.0,2.0,74,0.00,CLR,,0.00,WeatherDisplay:10.37,2013-02-10 16:50:00,
2013-02-10 17:55:00,36.5,29.0,29.78,NNW,328,1.0,2.0,74,0.00,CLR,,0.00,WeatherDisplay:10.37,2013-02-10 16:55:00,
2013-02-10 18:00:00,36.5,29.0,29.78,NW,315,1.0,2.0,74,0.00,CLR,,0.00,WeatherDisplay:10.37,2013-02-10 17:00:00,
2013-02-10 18:05:00,36.5,29.0,29.79,NW,323,1.0,3.0,74,0.00,CLR,,0.00,WeatherDisplay:10.37,2013-02-10 17:05:00,
2013-02-10 18:10:00,36.5,29.0,29.79,NNW,334,1.0,3.0,74,0.00,CLR,,0.00,WeatherDisplay:10.37,2013-02-10 17:10:00,
2013-02-10 18:15:00,36.5,29.0,29.79,NNW,338,1.0,3.0,74,0.00,CLR,,0.00,WeatherDisplay:10.37,2013-02-10 17:15:00,
2013-02-10 18:20:00,36.7,29.2,29.78,NNW,333,1.0,3.0,74,0.00,CLR,,0.00,WeatherDisplay:10.37,2013-02-10 17:20:00,
2013-02-10 18:25:00,36.7,29.2,29.78,NW,322,1.0,3.0,74,0.00,CLR,,0.00,WeatherDisplay:10.37,2013-02-10 17:25:00,
2013-02-10 18:30:00,36.7,29.2,29.78,NW,315,1.0,3.0,74,0.00,CLR,,0.00,WeatherDisplay:10.37,2013-02-10 17:30:00,
2013-02-10 18:35:00,36.7,29.5,29.78,NW,326,2.0,4.0,75,0.00,CLR,,0.00,WeatherDisplay:10.37,2013-02-10 17:35:00,
2013-02-10 18:40:00,36.7,29.5,29.78,North,350,2.0,4.0,75,0.00,CLR,,0.00,WeatherDisplay:10.37,2013-02-10 17:40:00,
2013-02-10 18:45:00,36.7,29.5,29.78,North,0,2.0,4.0,75,0.00,CLR,,0.00,WeatherDisplay:10.37,2013-02-10 17:45:00,
2013-02-10 18:50:00,36.9,29.7,29.78,North,0,1.0,4.0,75,0.00,CLR,,0.00,WeatherDisplay:10.37,2013-02-10 17:50:00,
2013-02-10 18:55:00,36.9,29.7,29.78,North,0,1.0,2.0,75,0.00,CLR,,0.00,WeatherDisplay:10.37,2013-02-10 17:55:00,
2013-02-10 19:00:00,36.9,29.7,29.78,North,0,1.0,2.0,75,0.00,CLR,,0.00,WeatherDisplay:10.37,2013-02-10 18:00:00,
2013-02-10 19:05:00,36.9,29.7,29.78,North,9,1.0,2.0,75,0.00,CLR,,0.00,WeatherDisplay:10.37,2013-02-10 18:05:00,
2013-02-10 19:10:00,36.9,29.7,29.78,NNE,32,1.0,2.0,75,0.00,CLR,,0.00,WeatherDisplay:10.37,2013-02-10 18:10:00,
2013-02-10 19:15:00,36.9,29.7,29.78,NE,45,1.0,2.0,75,0.00,CLR,,0.00,WeatherDisplay:10.37,2013-02-10 18:15:00,
2013-02-10 19:20:00,36.7,29.5,29.78,ENE,68,0.0,2.0,75,0.00,CLR,,0.00,WeatherDisplay:10.37,2013-02-10 18:20:00,
2013-02-10 19:25:00,36.7,29.5,29.78,SSE,168,0.0,2.0,75,0.00,CLR,,0.00,WeatherDisplay:10.37,2013-02-10 18:25:00,
2013-02-10 19:30:00,36.7,29.5,29.78,South,180,0.0,2.0,75,0.00,CLR,,0.00,WeatherDisplay:10.37,2013-02-10 18:30:00,
2013-02-10 19:35:00,36.7,29.5,29.78,South,184,1.0,2.0,75,0.00,CLR,,0.00,WeatherDisplay:10.37,2013-02-10 18:35:00,
2013-02-10 19:40:00,36.7,29.5,29.78,WNW,297,1.0,2.0,75,0.00,CLR,,0.00,WeatherDisplay:10.37,2013-02-10 18:40:00,
2013-02-10 19:45:00,36.7,29.5,29.78,NNW,338,1.0,2.0,75,0.00,CLR,,0.00,WeatherDisplay:10.37,2013-02-10 18:45:00,
2013-02-10 19:50:00,36.5,29.7,29.78,NNW,331,0.0,2.0,76,0.00,CLR,,0.00,WeatherDisplay:10.37,2013-02-10 18:50:00,
2013-02-10 19:55:00,36.5,29.7,29.78,NW,320,0.0,2.0,76,0.00,CLR,,0.00,WeatherDisplay:10.37,2013-02-10 18:55:00,
2013-02-10 20:00:00,36.5,29.7,29.78,NW,315,0.0,2.0,76,0.00,CLR,,0.00,WeatherDisplay:10.37,2013-02-10 19:00:00,
2013-02-10 20:05:00,36.5,29.7,29.77,NW,306,0.0,2.0,76,0.00,CLR,,0.00,WeatherDisplay:10.37,2013-02-10 19:05:00,
2013-02-10 20:10:00,36.5,29.7,29.77,WNW,283,0.0,0.0,76,0.00,CLR,,0.00,WeatherDisplay:10.37,2013-02-10 19:10:00,
2013-02-10 20:15:00,36.5,29.7,29.77,West,270,0.0,0.0,76,0.00,CLR,,0.00,WeatherDisplay:10.37,2013-02-10 19:15:00,
2013-02-10 20:20:00,36.5,29.7,29.77,West,279,0.0,2.0,76,0.00,CLR,,0.00,WeatherDisplay:10.37,2013-02-10 19:20:00,
2013-02-10 20:25:00,36.5,29.7,29.77,WNW,302,0.0,2.0,76,0.00,CLR,,0.00,WeatherDisplay:10.37,2013-02-10 19:25:00,
2013-02-10 20:30:00,36.5,29.7,29.77,NW,315,0.0,2.0,76,0.00,CLR,,0.00,WeatherDisplay:10.37,2013-02-10 19:30:00,
2013-02-10 20:35:00,36.3,29.5,29.76,NW,320,1.0,2.0,76,0.00,CLR,,0.00,WeatherDisplay:10.37,2013-02-10 19:35:00,
2013-02-10 20:40:00,36.3,29.5,29.76,NNW,341,1.0,2.0,76,0.00,CLR,,0.00,WeatherDisplay:10.37,2013-02-10 19:40:00,
2013-02-10 20:45:00,36.3,29.5,29.76,North,0,1.0,2.0,76,0.00,CLR,,0.00,WeatherDisplay:10.37,2013-02-10 19:45:00,
2013-02-10 20:50:00,36.3,29.5,29.75,North,0,0.0,2.0,76,0.00,CLR,,0.00,WeatherDisplay:10.37,2013-02-10 19:50:00,
2013-02-10 20:55:00,36.3,29.5,29.75,North,0,0.0,1.0,76,0.00,CLR,,0.00,WeatherDisplay:10.37,2013-02-10 19:55:00,
2013-02-10 21:00:00,36.3,29.5,29.75,North,0,0.0,1.0,76,0.00,CLR,,0.00,WeatherDisplay:10.37,2013-02-10 20:00:00,
2013-02-10 21:05:00,36.1,29.3,29.75,North,356,0.0,1.0,76,0.00,CLR,,0.00,WeatherDisplay:10.37,2013-02-10 20:05:00,
2013-02-10 21:10:00,36.1,29.3,29.75,NNW,345,0.0,1.0,76,0.00,CLR,,0.00,WeatherDisplay:10.37,2013-02-10 20:10:00,
2013-02-10 21:15:00,36.1,29.3,29.75,NNW,338,0.0,1.0,76,0.00,CLR,,0.00,WeatherDisplay:10.37,2013-02-10 20:15:00,
2013-02-10 21:20:00,36.1,29.3,29.74,NNW,342,0.0,2.0,76,0.00,CLR,,0.00,WeatherDisplay:10.37,2013-02-10 20:20:00,
2013-02-10 21:25:00,36.1,29.3,29.74,North,353,0.0,2.0,76,0.00,CLR,,0.00,WeatherDisplay:10.37,2013-02-10 20:25:00,
2013-02-10 21:30:00,36.1,29.3,29.74,North,0,0.0,2.0,76,0.00,CLR,,0.00,WeatherDisplay:10.37,2013-02-10 20:30:00,
2013-02-10 21:35:00,36.3,29.5,29.74,North,355,1.0,2.0,76,0.00,CLR,,0.00,WeatherDisplay:10.37,2013-02-10 20:35:00,
2013-02-10 21:40:00,36.3,29.5,29.74,NNW,334,1.0,2.0,76,0.00,CLR,,0.00,WeatherDisplay:10.37,2013-02-10 20:40:00,
2013-02-10 21:45:00,36.3,29.5,29.74,NW,315,1.0,2.0,76,0.00,CLR,,0.00,WeatherDisplay:10.37,2013-02-10 20:45:00,
2013-02-10 21:50:00,36.5,29.7,29.73,NW,315,1.0,2.0,76,0.00,CLR,,0.00,WeatherDisplay:10.37,2013-02-10 20:50:00,
2013-02-10 21:55:00,36.5,29.7,29.73,NW,315,1.0,2.0,76,0.00,CLR,,0.00,WeatherDisplay:10.37,2013-02-10 20:55:00,
2013-02-10 22:00:00,36.5,29.7,29.73,NW,315,1.0,2.0,76,0.00,CLR,,0.00,WeatherDisplay:10.37,2013-02-10 21:00:00,
2013-02-10 22:05:00,36.5,29.7,29.74,NW,306,1.0,2.0,76,0.00,CLR,,0.00,WeatherDisplay:10.37,2013-02-10 21:05:00,
2013-02-10 22:10:00,36.5,29.7,29.74,WNW,283,1.0,2.0,76,0.00,CLR,,0.00,WeatherDisplay:10.37,2013-02-10 21:10:00,
2013-02-10 22:15:00,36.5,29.7,29.74,West,270,1.0,2.0,76,0.00,CLR,,0.00,WeatherDisplay:10.37,2013-02-10 21:15:00,
2013-02-10 22:20:00,36.5,29.7,29.74,West,270,1.0,2.0,76,0.00,CLR,,0.00,WeatherDisplay:10.37,2013-02-10 21:20:00,
2013-02-10 22:25:00,36.5,29.7,29.74,West,270,1.0,2.0,76,0.00,CLR,,0.00,WeatherDisplay:10.37,2013-02-10 21:25:00,
2013-02-10 22:30:00,36.5,29.7,29.74,West,270,1.0,2.0,76,0.00,CLR,,0.00,WeatherDisplay:10.37,2013-02-10 21:30:00,
2013-02-10 22:35:00,36.5,29.7,29.74,WNW,283,0.0,2.0,76,0.00,CLR,,0.00,WeatherDisplay:10.37,2013-02-10 21:35:00,
2013-02-10 22:40:00,36.5,29.7,29.74,NW,306,0.0,2.0,76,0.00,CLR,,0.00,WeatherDisplay:10.37,2013-02-10 21:40:00,
2013-02-10 22:45:00,36.5,29.7,29.74,NW,315,0.0,2.0,76,0.00,CLR,,0.00,WeatherDisplay:10.37,2013-02-10 21:45:00,
2013-02-10 22:50:00,36.7,29.8,29.74,NW,310,1.0,2.0,76,0.00,CLR,,0.00,WeatherDisplay:10.37,2013-02-10 21:50:00,
2013-02-10 22:55:00,36.7,29.8,29.74,WNW,289,1.0,2.0,76,0.00,CLR,,0.00,WeatherDisplay:10.37,2013-02-10 21:55:00,
2013-02-10 23:00:00,36.7,29.8,29.74,West,270,1.0,2.0,76,0.00,CLR,,0.00,WeatherDisplay:10.37,2013-02-10 22:00:00,
2013-02-10 23:05:00,36.5,29.7,29.73,WNW,293,0.0,2.0,76,0.00,CLR,,0.00,WeatherDisplay:10.37,2013-02-10 22:05:00,
2013-02-10 23:10:00,36.5,29.7,29.73,NNW,346,0.0,2.0,76,0.00,CLR,,0.00,WeatherDisplay:10.37,2013-02-10 22:10:00,
2013-02-10 23:15:00,36.5,29.7,29.73,North,0,0.0,2.0,76,0.00,CLR,,0.00,WeatherDisplay:10.37,2013-02-10 22:15:00,
2013-02-10 23:20:00,36.5,29.7,29.73,North,9,0.0,2.0,76,0.00,CLR,,0.00,WeatherDisplay:10.37,2013-02-10 22:20:00,
2013-02-10 23:25:00,36.5,29.7,29.73,NNE,32,0.0,2.0,76,0.00,CLR,,0.00,WeatherDisplay:10.37,2013-02-10 22:25:00,
2013-02-10 23:30:00,36.5,29.7,29.73,NE,45,0.0,2.0,76,0.00,CLR,,0.00,WeatherDisplay:10.37,2013-02-10 22:30:00,
2013-02-10 23:35:00,36.7,29.8,29.73,NNE,31,0.0,2.0,76,0.00,CLR,,0.00,WeatherDisplay:10.37,2013-02-10 22:35:00,
2013-02-10 23:40:00,36.7,29.8,29.73,NNW,338,0.0,1.0,76,0.00,CLR,,0.00,WeatherDisplay:10.37,2013-02-10 22:40:00,
2013-02-10 23:45:00,36.7,29.8,29.73,NW,315,0.0,1.0,76,0.00,CLR,,0.00,WeatherDisplay:10.37,2013-02-10 22:45:00,
2013-02-10 23:50:00,36.7,29.8,29.73,NW,320,1.0,2.0,76,0.00,CLR,,0.00,WeatherDisplay:10.37,2013-02-10 22:50:00,
2013-02-10 23:55:00,36.7,29.8,29.73,NNW,341,1.0,2.0,76,0.00,CLR,,0.00,WeatherDisplay:10.37,2013-02-10 22:55:00,